Regional Weather Roundup
Issued by NWS

Home | Current Version | Previous Version | Graphics & Text | Print | Product List | Glossary On
Versions: 1 2 3 4 5 6 7 8 9 10 11 12 13 14 15 16 17 18 19 20 21 22 23 24 25 26 27 28 29 30 31 32 33 34 35 36 37 38 39 40 41 42 43 44 45 46 47 48 49 50
000
ASUS43 KFSD 162302
RWRSD

WEATHER ROUNDUP FOR SOUTH DAKOTA
NATIONAL WEATHER SERVICE SIOUX FALLS SD
600 PM CDT WED AUG 16 2017

NOTE: "FAIR" INDICATES FEW OR NO CLOUDS BELOW 12,000 FEET WITH NO
SIGNIFICANT WEATHER AND/OR OBSTRUCTIONS TO VISIBILITY.


SDZ001>005-009-010-012>017-170000-
NORTHWEST AND NORTH CENTRAL SOUTH DAKOTA

CITY           SKY/WX    TMP DP  RH WIND       PRES   REMARKS
BUFFALO          N/A     82  46  28 N6        29.90F
FAITH            N/A     77  47  34 NE14G21   29.95S
MOBRIDGE       CLOUDY    73  61  65 N10       29.87F
$$

SDZ012>016-024>037-041>051-057-063-072>074-170000-
SOUTHWEST AND SOUTH CENTRAL SOUTH DAKOTA

CITY           SKY/WX    TMP DP  RH WIND       PRES   REMARKS
RAPID CTY ARPT SUNNY     80  45  28 NW9       29.98F
PIERRE         CLOUDY    70  59  68 NW12      29.88S
CUSTER         CLOUDY    65  45  48 SE5       30.11S
ELLSWORTH AFB  SUNNY     79  48  33 NW7       29.99S
PHILIP         CLOUDY    80  45  28 N17       29.93R
PINE RIDGE     SUNNY     78  49  35 N12       30.00S
SPEARFISH      FAIR      77  45  31 VRB5G13   30.03S
WINNER         FAIR      69  63  81 NW13      29.90S
$$

SDZ004>011-016>023-039-040-170000-
NORTHEAST SOUTH DAKOTA

CITY           SKY/WX    TMP DP  RH WIND       PRES   REMARKS
ABERDEEN       LGT RAIN  68  66  93 N16       29.82S
WATERTOWN      RAIN      66  66 100 N9        29.76F FOG
BROOKINGS      RAIN      65  64  97 N8        29.75S
SISSETON         N/A     68  68 100 N8        29.77F
$$

SDZ017-020-022-023-036>040-048>070-170000-
SOUTHEAST SOUTH DAKOTA

CITY           SKY/WX    TMP DP  RH WIND       PRES   REMARKS
SIOUX FALLS    LGT RAIN  67  67 100 NW8       29.72S
HURON          CLOUDY    67  66  97 NW13      29.79S
CHAMBERLAIN    DRIZZLE   66  65  99 W10       29.86F
MITCHELL       LGT RAIN  67  66  97 NW14      29.79S
YANKTON        LGT RAIN  69  64  84 W21G28    29.78S
$$

ABBREVIATIONS USED IN REMARKS
   TC - TEMPERATURE IN CELSIUS
  WCI - WIND CHILL INDEX
   HX - HEAT INDEX
  VSB - VISIBILITY




USA.gov is the U.S. government's official web portal to all federal, state and local government web resources and services.